Wind_Speed
8 8 8 8 8 8 9 9 8 8 7 6 6 6 6 6 6 6 6 6 6 7 6 6 6 7 7 8 8 8 8 8 8 8 8 8 9 9 9 9 10 10 11
7 7 7 7 7 8 9 9 9 8 7 7 6 6 7 6 6 7 6 6 7 7 7 7 7 8 9 9 9 9 9 9 9 8 8 9 9 9 10 10 11 11 11
5 7 6 6 7 7 8 8 8 8 8 7 7 7 7 7 7 6 6 7 8 7 7 7 8 9 9 10 10 10 10 9 9 9 9 9 9 10 10 11 11 12 12
6 6 6 7 7 7 7 7 7 7 8 7 7 7 7 7 7 7 7 7 7 8 8 8 9 10 10 10 10 10 10 10 10 10 10 10 10 11 11 12 12 12 13
6 6 7 7 7 7 7 7 7 7 7 7 7 7 7 7 8 8 7 7 8 8 8 9 10 10 11 12 12 11 11 11 11 11 11 12 12 13 13 13 13 13 14
6 7 8 7 7 7 7 7 7 7 7 7 7 7 7 7 8 8 8 8 8 8 9 10 11 12 12 13 12 12 12 12 11 11 12 12 13 13 14 14 15 15 15
7 8 8 8 8 8 7 7 7 7 7 7 7 7 7 8 8 8 9 9 9 10 10 11 12 13 13 13 13 12 12 12 12 12 12 13 14 14 15 15 16 16 16
8 8 8 9 9 8 8 8 8 7 7 8 8 8 8 8 8 9 10 10 10 10 11 12 13 13 13 14 14 13 13 13 13 13 14 14 14 15 16 16 17 17 17
8 9 9 10 10 9 9 9 9 8 8 8 9 9 9 9 9 10 10 11 11 12 12 12 13 14 14 14 14 14 13 13 13 14 14 15 15 16 17 18 18 18 18
8 10 10 10 11 11 10 10 10 9 9 9 9 9 10 10 10 10 11 11 12 13 13 14 14 14 15 15 15 15 14 14 14 15 15 16 16 17 18 18 18 18 18
9 11 11 11 11 12 11 11 12 11 11 11 10 10 10 11 11 12 12 12 13 14 14 15 16 15 15 15 15 15 15 16 16 16 16 17 18 18 18 18 18 18 19
13 13 13 12 13 13 13 12 12 12 12 12 12 12 12 12 13 13 13 14 14 15 16 17 17 16 16 17 17 16 16 17 17 18 18 19 19 19 19 18 18 18 19
15 15 14 14 14 14 13 13 13 13 13 13 13 13 13 14 14 14 14 15 16 16 17 17 18 18 18 19 18 18 18 18 19 19 19 20 20 20 20 19 19 19 20
17 16 15 16 15 15 14 14 14 13 13 13 14 14 15 15 15 16 16 17 17 17 18 18 18 18 19 19 19 19 19 20 20 20 20 20 21 21 21 21 20 21 21
18 18 18 18 17 16 16 15 15 15 14 15 15 16 17 17 17 17 18 18 19 19 19 19 19 19 20 20 20 20 21 21 21 21 21 21 21 21 22 22 22 22 22
19 19 19 19 18 18 17 17 17 16 17 17 17 17 18 18 18 19 19 20 20 20 20 20 20 20 20 20 21 21 22 22 22 22 22 22 22 22 23 23 23 22 22
21 21 21 21 20 20 19 18 18 18 18 18 19 19 19 19 20 20 21 21 21 21 21 21 21 21 21 21 21 22 22 23 23 23 23 23 23 23 24 24 24 23 23
23 23 22 22 22 21 21 21 20 20 20 20 20 21 21 21 21 21 22 22 22 22 23 23 22 22 22 22 23 23 23 24 24 24 24 24 24 24 24 24 24 25 25
24 24 23 23 23 23 22 22 22 22 22 22 22 22 22 22 21 22 22 23 23 23 24 23 24 24 23 23 23 24 24 25 25 25 25 25 25 25 26 26 26 25 25
26 26 25 24 24 24 24 23 23 23 22 22 23 22 22 23 23 23 23 24 24 24 25 24 25 25 24 24 24 25 25 26 27 27 27 27 27 27 26 27 27 27 27
27 27 27 26 26 25 25 25 24 24 24 23 23 22 22 23 23 23 24 25 25 25 25 25 25 26 26 26 26 27 28 28 28 28 28 28 29 28 27 28 28 28 28
27 27 27 27 28 28 28 27 26 25 24 24 24 24 24 25 25 24 25 26 26 26 26 27 27 27 27 27 28 29 30 30 30 29 29 28 28 28 28 28 28 29 29
29 28 28 29 29 29 28 28 26 26 26 26 26 26 26 27 26 26 27 27 27 28 28 28 28 28 28 29 30 30 30 31 31 30 30 30 30 30 29 29 29 29 29
31 30 30 30 29 29 28 27 28 28 27 27 28 28 28 29 29 29 29 29 29 29 29 29 29 29 29 30 31 31 31 31 31 31 31 31 31 31 31 30 30 30 29
31 31 30 30 30 29 28 28 28 28 29 29 30 30 31 31 31 30 30 30 30 31 31 31 31 30 30 31 31 32 32 32 32 32 31 31 31 31 31 31 30 30 29
31 30 30 30 29 29 29 29 30 30 30 30 31 32 32 32 31 30 30 30 31 32 32 32 32 32 31 31 32 32 32 32 32 32 32 32 32 31 30 29 29 29 29
Wind_Direction
38 38 37 35 37 39 39 37 35 37 35 31 29 27 24 22 20 18 21 22 21 18 10 6 4 359 352 344 337 331 326 325 326 327 329 323 319 318 319 317 319 317 316
23 30 28 29 32 31 28 28 27 24 26 26 26 20 16 13 10 8 9 8 5 1 359 359 354 351 349 345 339 336 331 326 325 322 320 322 322 322 322 322 320 319 316
8 16 25 30 25 15 13 15 16 16 19 19 15 11 11 9 3 2 2 358 356 354 351 350 349 347 346 343 340 338 338 335 331 325 320 318 321 321 322 321 321 319 317
359 359 5 7 7 3 360 1 6 8 8 6 6 2 3 4 2 0 356 351 352 353 353 349 347 344 343 342 341 338 338 335 333 330 326 323 321 321 320 318 316 315 316
344 349 349 350 349 351 350 353 357 357 356 355 357 357 357 357 358 0 354 350 347 345 347 346 346 342 339 339 339 337 334 332 330 330 329 328 325 324 322 320 316 315 314
327 336 336 337 337 339 342 343 344 344 344 346 348 349 350 350 351 353 351 349 349 349 347 344 343 342 341 340 337 335 333 330 327 327 328 328 326 323 323 321 318 316 316
315 323 327 329 327 329 331 333 334 338 338 339 338 339 340 339 340 341 341 340 341 342 343 341 338 336 337 338 337 333 331 331 329 328 328 327 325 322 321 318 318 317 316
303 312 318 318 318 320 323 323 324 328 332 333 332 329 328 329 331 331 332 334 334 334 335 336 336 334 334 335 335 335 332 328 327 326 325 322 321 321 320 318 317 316 314
298 306 311 312 314 316 318 320 320 320 321 323 323 323 324 324 324 325 327 328 331 332 332 333 332 333 332 333 333 330 328 323 322 321 321 320 318 318 317 316 315 315 314
291 299 302 305 308 310 313 317 319 317 315 314 313 314 316 316 316 321 324 326 328 328 327 327 327 327 329 330 331 330 325 323 320 319 319 319 317 315 314 314 313 314 315
289 290 290 296 299 300 304 307 309 310 309 308 306 307 308 310 313 316 319 320 320 322 322 322 323 323 324 325 325 324 321 320 320 319 319 318 318 315 312 311 311 312 312
280 284 288 293 294 295 297 299 301 301 301 301 301 301 304 307 311 314 315 316 317 318 318 317 319 319 319 319 321 320 319 317 318 318 318 317 317 314 311 311 311 311 311
278 281 285 290 292 292 293 294 296 297 296 297 297 298 300 303 306 308 310 313 315 316 317 317 316 316 316 315 316 315 315 316 314 314 314 314 314 315 313 312 311 311 311
275 279 283 287 289 287 286 289 291 293 293 294 295 295 296 298 300 302 304 308 310 312 314 314 315 315 315 314 312 312 312 312 312 311 311 311 311 312 312 311 310 309 309
273 276 280 282 284 284 284 287 288 289 291 293 293 293 292 293 296 299 300 302 305 308 310 311 311 312 313 312 310 310 310 310 310 310 310 310 309 309 309 309 309 308 307
272 273 276 279 281 283 283 284 283 284 287 289 291 290 291 293 295 296 297 299 302 304 305 307 307 309 309 310 309 309 309 309 308 308 308 307 307 307 306 306 307 307 307
270 273 273 274 276 278 280 282 281 282 284 285 288 288 288 290 292 293 296 298 301 302 303 304 304 305 307 308 309 309 310 309 308 307 307 305 305 305 305 304 303 303 304
270 271 272 273 272 273 275 278 279 281 282 284 286 288 287 287 289 291 295 297 299 300 301 301 302 302 304 306 307 307 308 309 309 308 306 305 304 303 303 304 303 301 301
269 271 272 271 270 271 273 274 277 279 281 282 284 285 287 286 286 290 294 296 297 298 300 299 301 301 302 303 305 306 307 309 309 308 306 306 306 304 303 302 302 302 301
267 271 272 271 270 270 271 272 275 277 279 282 284 286 286 286 286 288 291 294 296 296 297 298 299 300 300 301 302 304 305 306 307 307 305 304 303 302 301 301 302 301 301
266 268 270 269 269 269 271 273 276 278 280 281 284 286 288 288 287 288 290 293 295 296 296 297 298 300 301 301 303 304 305 305 306 306 305 304 302 299 299 299 302 301 302
267 268 268 269 269 269 270 272 274 276 277 279 282 285 286 287 289 290 290 291 293 295 295 296 297 299 301 301 302 304 306 306 307 306 304 303 301 299 298 298 299 300 300
267 268 269 270 270 270 270 271 272 273 274 277 280 283 285 285 287 288 288 289 291 293 294 297 298 299 300 301 302 303 304 305 306 305 303 302 302 302 301 300 299 299 299
266 267 268 269 270 269 270 270 272 273 274 277 280 282 284 285 286 287 288 289 290 291 292 295 297 298 298 299 301 302 303 303 303 303 302 302 301 302 302 300 299 298 298
265 266 268 268 270 270 270 271 271 272 275 277 279 281 282 284 285 285 285 287 288 290 292 293 295 297 298 299 300 302 302 302 303 302 301 300 301 301 300 300 300 300 300
263 263 266 268 270 270 270 270 271 272 273 275 277 279 281 284 283 283 284 286 288 290 291 293 295 296 297 298 299 300 301 302 302 302 302 301 301 302 301 299 299 300 299
Height
5908 5907 5907 5906 5905 5905 5905 5904 5904 5903 5903 5902 5902 5901 5901 5901 5900 5900 5899 5898 5898 5897 5896 5896 5895 5894 5893 5892 5891 5890 5889 5888 5887 5886 5885 5884 5884 5882 5882 5881 5880 5879 5878
5909 5909 5908 5907 5906 5906 5906 5906 5905 5904 5904 5903 5903 5902 5902 5901 5901 5900 5899 5899 5898 5897 5896 5896 5895 5894 5893 5892 5891 5889 5888 5887 5886 5885 5884 5884 5883 5881 5880 5880 5879 5877 5876
5911 5910 5908 5908 5908 5907 5907 5906 5906 5905 5905 5904 5904 5903 5902 5902 5901 5901 5900 5899 5898 5897 5896 5896 5895 5894 5893 5891 5890 5889 5887 5886 5885 5884 5883 5882 5881 5880 5879 5878 5877 5875 5874
5911 5911 5910 5909 5909 5908 5908 5907 5906 5905 5905 5904 5904 5903 5903 5902 5902 5901 5900 5899 5898 5897 5897 5896 5895 5893 5892 5891 5889 5888 5886 5885 5884 5882 5881 5880 5879 5878 5877 5876 5875 5873 5872
5911 5911 5911 5910 5909 5909 5908 5907 5907 5906 5905 5905 5904 5904 5903 5902 5902 5901 5900 5899 5898 5897 5896 5895 5894 5892 5891 5889 5888 5886 5885 5883 5882 5881 5879 5878 5877 5876 5875 5874 5872 5871 5869
5911 5911 5910 5910 5909 5909 5908 5907 5906 5906 5905 5905 5904 5904 5903 5902 5902 5901 5900 5899 5898 5897 5895 5894 5893 5891 5890 5888 5887 5885 5883 5882 5880 5879 5877 5876 5875 5874 5872 5871 5869 5868 5867
5911 5911 5910 5910 5909 5908 5907 5907 5906 5905 5905 5904 5904 5903 5903 5902 5901 5900 5899 5898 5897 5896 5895 5893 5892 5890 5889 5887 5885 5883 5881 5880 5878 5877 5875 5874 5873 5871 5870 5868 5866 5865 5863
5910 5910 5910 5909 5908 5907 5906 5906 5905 5905 5904 5904 5903 5902 5902 5901 5900 5899 5898 5897 5896 5895 5894 5892 5890 5889 5887 5885 5883 5881 5879 5878 5876 5874 5873 5871 5870 5868 5867 5865 5863 5861 5860
5909 5909 5908 5908 5907 5906 5905 5905 5904 5904 5903 5903 5902 5901 5900 5900 5899 5898 5897 5896 5895 5893 5892 5890 5889 5887 5885 5883 5881 5879 5877 5875 5874 5872 5870 5869 5867 5865 5863 5861 5859 5858 5856
5906 5907 5907 5906 5906 5905 5904 5904 5903 5902 5902 5901 5901 5900 5899 5899 5898 5896 5895 5894 5893 5891 5890 5888 5886 5885 5883 5880 5878 5876 5874 5873 5871 5869 5868 5866 5863 5862 5860 5858 5855 5853 5851
5904 5905 5905 5904 5904 5904 5903 5902 5901 5901 5900 5899 5899 5898 5897 5897 5896 5895 5894 5892 5891 5889 5888 5886 5884 5882 5880 5878 5876 5874 5872 5870 5868 5866 5864 5862 5860 5858 5856 5853 5851 5849 5847
5903 5902 5902 5902 5902 5901 5901 5900 5899 5898 5898 5897 5896 5896 5895 5894 5894 5893 5891 5890 5888 5887 5885 5883 5881 5879 5877 5875 5873 5871 5869 5867 5865 5863 5861 5859 5856 5854 5851 5849 5847 5845 5842
5900 5900 5899 5899 5899 5898 5898 5897 5896 5896 5895 5894 5894 5893 5893 5892 5891 5890 5889 5887 5886 5884 5882 5880 5878 5876 5873 5871 5869 5867 5865 5863 5861 5859 5857 5855 5852 5849 5847 5845 5842 5840 5838
5896 5896 5896 5896 5896 5895 5894 5894 5893 5893 5892 5892 5891 5890 5890 5889 5888 5887 5885 5884 5882 5881 5879 5877 5874 5872 5870 5868 5865 5863 5861 5859 5857 5855 5852 5850 5847 5845 5842 5840 5838 5835 5833
5892 5892 5892 5892 5892 5891 5891 5890 5890 5889 5889 5888 5887 5887 5886 5885 5884 5883 5882 5880 5879 5877 5875 5873 5871 5868 5866 5864 5861 5859 5857 5855 5852 5850 5847 5845 5842 5840 5837 5835 5832 5830 5828
5888 5888 5888 5888 5887 5887 5887 5886 5886 5886 5885 5884 5883 5883 5882 5881 5880 5879 5878 5876 5874 5872 5870 5868 5866 5864 5862 5859 5857 5854 5852 5850 5847 5845 5843 5840 5837 5835 5832 5830 5827 5825 5823
5883 5883 5883 5883 5883 5883 5883 5882 5882 5881 5881 5880 5879 5878 5877 5877 5876 5874 5873 5871 5870 5868 5866 5864 5861 5859 5857 5855 5852 5850 5847 5845 5842 5840 5837 5834 5832 5830 5827 5825 5822 5819 5817
5877 5877 5877 5877 5877 5877 5877 5877 5877 5876 5876 5875 5874 5873 5873 5871 5870 5869 5868 5866 5864 5863 5861 5859 5856 5854 5852 5849 5847 5845 5842 5839 5837 5834 5831 5829 5826 5824 5821 5819 5817 5814 5812
5871 5871 5871 5871 5871 5872 5872 5872 5871 5871 5870 5869 5869 5868 5867 5866 5865 5864 5862 5861 5859 5857 5855 5853 5851 5849 5847 5844 5842 5839 5836 5834 5831 5828 5825 5823 5820 5818 5815 5813 5810 5808 5805
5865 5865 5865 5865 5865 5865 5865 5866 5866 5865 5865 5864 5863 5862 5861 5860 5859 5858 5856 5855 5853 5851 5849 5848 5845 5843 5841 5838 5836 5833 5830 5828 5825 5822 5819 5816 5813 5811 5808 5806 5803 5801 5798
5858 5858 5858 5858 5859 5859 5859 5860 5859 5859 5859 5858 5857 5856 5855 5854 5852 5851 5850 5848 5847 5845 5843 5842 5840 5837 5835 5832 5830 5827 5824 5821 5818 5815 5812 5809 5806 5804 5801 5799 5796 5794 5791
5850 5851 5851 5852 5852 5852 5852 5852 5853 5852 5852 5851 5850 5850 5848 5847 5846 5845 5843 5842 5840 5839 5837 5835 5833 5831 5828 5825 5823 5820 5817 5814 5811 5808 5805 5802 5799 5797 5794 5791 5789 5786 5783
5843 5844 5844 5844 5845 5844 5844 5845 5845 5845 5844 5844 5844 5843 5842 5840 5839 5838 5836 5834 5833 5831 5829 5827 5825 5824 5821 5818 5816 5813 5810 5806 5803 5800 5797 5794 5792 5789 5786 5784 5781 5778 5776
5836 5836 5836 5837 5837 5837 5836 5836 5837 5837 5837 5837 5836 5835 5834 5832 5831 5830 5828 5827 5825 5823 5822 5820 5818 5815 5813 5811 5808 5805 5802 5799 5796 5792 5789 5787 5784 5781 5778 5776 5773 5770 5768
5828 5828 5828 5829 5829 5829 5829 5829 5829 5829 5829 5828 5828 5827 5825 5824 5823 5822 5820 5818 5817 5815 5813 5811 5809 5807 5805 5803 5800 5797 5794 5790 5787 5784 5781 5779 5776 5773 5770 5768 5765 5763 5760
5819 5820 5820 5820 5821 5821 5821 5821 5821 5821 5821 5820 5819 5818 5817 5816 5814 5813 5811 5810 5808 5807 5805 5802 5801 5798 5797 5794 5791 5789 5786 5782 5779 5776 5773 5771 5768 5765 5762 5760 5758 5755 5753